Content
SEND FEEDBACK

Daily
Averages
Monthly
Summary
United States of America

PUT IN BAY, OHIO


Home > North America > United States > Ohio
Elevation: 561 feet     Latitude: 41 39N     Longitude: 082 48W

WEATHER
 
SELECT A DAY
Number of Records: 123,053;   Date Range: 12/10/00 - 9/17/14
 
SHARE

PRINT THIS DATA

[ ← Previous Day ]
WEATHER ALMANAC - APRIL 9, 2013
[ Next Day → ]
[ °C ]   °F
We're sorry. There is no daily almanac available for Put In Bay, Ohio on April 9, 2013.
WEATHER BY HOUR - APRIL 9, 2013
[ °C ]   °F
Local TimeTemperatureDewpointHumidityBarometerVisibilityWind DirectionWind SpeedGust SpeedPrecipitationEventsConditions
1:00 AM46.2 °F41.2 °F83 %29.97 inNW (320°)6.9 mph
2:00 AM45.0 °F41.0 °F82 %30.01 inWNW (300°)3.5 mph
2:00 AM45.0 °F41.2 °F87 %30.01 inWNW (300°)3.5 mph
3:00 AM45.0 °F41.5 °F88 %30.03 inWNW (290°)3.5 mph
4:00 AM41.7 °F39.4 °F91 %30.04 inNorth (350°)1.2 mph
5:00 AM38.1 °F36.5 °F94 %30.06 inSSE (160°)1.2 mph
6:00 AM39.7 °F38.5 °F95 %30.07 inEast (90°)2.3 mph
7:00 AM38.7 °F37.2 °F95 %30.09 inEast (100°)2.3 mph
8:00 AM41.0 °F40.0 °F95 %30.10 inEast (80°)4.6 mph
8:00 AM41.2 °F40.1 °F96 %30.10 inEast (80°)4.6 mph
9:00 AM41.7 °F39.9 °F93 %30.09 inEast (80°)5.8 mph
10:00 AM43.5 °F41.0 °F91 %30.08 inEast (80°)5.8 mph
11:00 AM42.8 °F40.6 °F92 %30.09 inESE (120°)5.8 mph
12:00 PM46.4 °F42.4 °F86 %30.06 inEast (90°)5.8 mph
1:00 PM48.0 °F42.6 °F82 %30.04 inEast (100°)3.5 mph
2:00 PM49.0 °F43.0 °F74 %29.98 inESE (120°)3.5 mph
2:00 PM48.9 °F43.2 °F80 %29.98 inESE (120°)3.5 mph
3:00 PM55.0 °F44.8 °F68 %29.94 inEast (90°)4.6 mph
4:00 PM57.4 °F45.1 °F64 %29.91 inEast (100°)3.5 mph
5:00 PM57.0 °F45.1 °F64 %29.88 inESE (120°)3.5 mph
6:00 PM52.3 °F44.1 °F73 %29.88 inEast (80°)2.3 mph
7:00 PM49.5 °F43.5 °F80 %29.89 inNNE (30°)6.9 mph
8:00 PM48.0 °F45.0 °F86 %29.90 inNNE (30°)5.8 mph
8:00 PM48.4 °F45.1 °F89 %29.90 inNNE (30°)5.8 mph
9:00 PM48.0 °F45.1 °F90 %29.89 inENE (70°)4.6 mph
10:00 PM48.2 °F45.7 °F91 %29.94 inNNE (30°)5.8 mph
11:00 PM47.3 °F45.0 °F92 %29.95 inENE (60°)5.8 mph
Hourly data recorded from CXHA, located miles away from Put In Bay, Ohio







STORIES FROM OUR PARTNERS